Вернуться в каталог

STARLINK-36799

АктивенСвязьVLEO
NORAD 67958·PAYLOAD·🇺🇸 United States

Запущен Feb 24, 2026 с Vandenberg Space Force Base

Loading…

Ближайшие Пролёты (ближайшие 24 часа)

TLE

СвежийSource: CelesTrak SupGP

Эпоха: Sep 14, 2026, 21:17 UTC

1 67958C 26037AC  26257.88729167  .00014043  00000+0  50856-3 0  2578
2 67958  43.0000 202.1179 0001259 262.0593 225.3338 15.27577382    14

Отслеживайте STARLINK-36799 в реальном времени с AllMySat

Download on the App Store